User: anonymous   Login
Location: Dover
(39.1580°N, 75.5250°W)
Time: 23:33:26
(UTC-04:00)
Language:

SeaSat 1 - Orbit

View from above orbital plane
View from above orbital plane
View from above satellite
View from above satellite

Ground track
Ground track

The orbit data is extracted from the following two-line orbital elements,

1 10967U 78064A   17177.89424171 -.00000079 +00000-0 +17126-4 0  9995
2 10967 108.0120 319.7115 0002222 239.6207 120.4718 14.43649842047774
Epoch (UTC): 26 June 2017 21:27:42
Eccentricity: 0.0002222
inclination: 108.0120°
perigee height: 745 km
apogee height: 748 km
right ascension of ascending node: 319.7115°
argument of perigee: 239.6207°
revolutions per day: 14.43649842
mean anomaly at epoch: 120.4718°
orbit number at epoch: 4777

The dashed part of the orbit path shows where the satellite is in the earth's shadow,  

DLR